This demonstration page uses our WeatherBlox Daily Observations layout. Learn more.

40.92945, -100.16068

Hourly Observations for December 25, 2019

Temp ( °F °C ) Dew Point ( °F °C ) Humidity (%) Winds ( mph kmh ) Pressure ( in mb ) Visibility ( mi km ) Precip ( " mm )
12:15 am 00:15 Clear 27 -2.6 27 -2.9 98 98 N 5 7 29.81 1010 10 16.0934 0 0
12:35 am 00:35 Clear 27 -3 26 -3.2 99 99 Calm 29.82 1010 10 16.0934 0 0
12:55 am 00:55 Clear 27 -3 26 -3.5 96 96 Calm 29.81 1009 10 16.0934 0 0
1:15 am 01:15 Clear 26 -3.3 25 -3.7 97 97 Calm 29.82 1010 10 16.0934 0 0
1:35 am 01:35 Clear 28 -2.5 27 -2.8 98 98 NW 6 9 29.8 1009 10 16.0934 0 0
1:55 am 01:55 Clear 28 -2.2 28 -2.5 98 98 N 3 6 29.79 1009 10 16.0934 0 0
2:15 am 02:15 Clear 28 -2 28 -2.3 98 98 WNW 3 6 29.79 1009 10 16.0934 0 0
2:35 am 02:35 Partly Cloudy 28 -2 28 -2.4 97 97 Calm 29.81 1009 10 16.0934 0 0
2:55 am 02:55 Mostly Cloudy 29 -1.7 28 -2.1 97 97 SW 3 6 29.81 1010 10 16.0934 0 0
3:15 am 03:15 Cloudy 30 -1.1 29 -1.6 96 96 Calm 29.81 1009 10 16.0934 0 0
3:35 am 03:35 Cloudy with Light Wintry Mix 30 -1 29 -1.5 96 96 NNE 5 7 29.78 1008 10 16.0934 0 0
3:55 am 03:55 Mostly Cloudy 30 -1.1 29 -1.5 97 97 NNE 9 15 29.74 1007 10 16.0934 0 0
4:15 am 04:15 Mostly Cloudy 30 -1.1 29 -1.5 97 97 N 6 9 29.74 1007 10 16.0934 0 0
4:35 am 04:35 Mostly Cloudy 31 -0.7 30 -0.9 99 99 ENE 3 6 29.72 1007 7 11.26538 0 0
4:55 am 04:55 Partly Cloudy 31 -0.5 31 -0.8 98 98 Calm 29.72 1006 7 11.26538 0 0
5:15 am 05:15 Partly Cloudy 31 -0.8 30 -1 99 99 SE 8 13 29.75 1008 7 11.26538 0 0
5:35 am 05:35 Mostly Cloudy with Mist and Fog 31 -0.8 30 -1 99 99 SE 8 13 29.74 1007 5 8.0467 0 0
5:55 am 05:55 Cloudy with Mist and Fog 30 -1 30 -1 100 100 ESE 7 11 29.75 1007 2.5 4.02335 0 0
6:15 am 06:15 Cloudy with Mist and Fog 30 -1.1 30 -1.1 100 100 ESE 8 13 29.75 1007 1.25 2.011675 0 0
6:35 am 06:35 Cloudy with Freezing Fog 29 -1.4 29 -1.4 100 100 ESE 6 9 29.76 1008 0.5 0.80467 0 0
6:55 am 06:55 Cloudy with Freezing Fog 29 -1.5 29 -1.5 100 100 N 5 7 29.77 1008 0.25 0.402335 0 0
7:15 am 07:15 Cloudy with Freezing Fog 29 -1.5 29 -1.5 100 100 N 7 11 29.76 1008 0.25 0.402335 0 0
7:35 am 07:35 Cloudy with Freezing Fog 29 -1.5 29 -1.5 100 100 NE 6 9 29.75 1007 0.25 0.402335 0 0
7:55 am 07:55 Cloudy with Freezing Fog 29 -1.6 29 -1.6 100 100 NE 3 6 29.77 1008 0.5 0.80467 0 0
8:15 am 08:15 Cloudy with Freezing Fog 29 -1.7 29 -1.7 100 100 NNE 5 7 29.75 1008 0.25 0.402335 0 0
8:35 am 08:35 Cloudy with Freezing Fog 29 -1.7 29 -1.7 100 100 NNE 5 7 29.75 1008 0.25 0.402335 0 0
8:55 am 08:55 Cloudy with Freezing Fog 29 -1.6 29 -1.6 100 100 NNE 5 7 29.77 1008 0.25 0.402335 0 0
9:15 am 09:15 Cloudy with Freezing Fog 29 -1.6 29 -1.6 100 100 N 5 7 29.77 1008 0.25 0.402335 0 0
9:35 am 09:35 Cloudy with Freezing Fog 29 -1.5 29 -1.5 100 100 N 6 9 29.78 1008 0.5 0.80467 0 0
9:55 am 09:55 Cloudy with Freezing Fog 30 -1.2 30 -1.2 100 100 N 5 7 29.78 1008 0.5 0.80467 0 0
10:15 am 10:15 Cloudy with Freezing Fog 30 -1.1 30 -1.1 100 100 NNE 6 9 29.78 1008 0.5 0.80467 0 0
10:35 am 10:35 Cloudy with Freezing Fog 30 -1 30 -1 100 100 N 5 7 29.8 1009 0.5 0.80467 0 0
10:55 am 10:55 Cloudy with Mist and Fog 30 -1 30 -1 100 100 N 7 11 29.79 1009 0.75 1.207005 0 0
11:15 am 11:15 Cloudy with Mist and Fog 31 -0.7 31 -0.7 100 100 N 8 13 29.77 1008 0.75 1.207005 0 0
11:35 am 11:35 Cloudy with Mist and Fog 31 -0.3 31 -0.3 100 100 NE 7 11 29.76 1008 2 3.21868 0 0
11:55 am 11:55 Cloudy with Mist and Fog 32 -0.2 32 -0.2 100 100 NE 7 11 29.76 1008 4 6.43736 0 0
12:15 pm 12:15 Cloudy with Mist and Fog 32 0 32 0 100 100 N 6 9 29.76 1008 3 4.82802 0 0
12:35 pm 12:35 Cloudy with Mist and Fog 32 0 32 0 100 100 NE 6 9 29.75 1007 4 6.43736 0 0
12:55 pm 12:55 Cloudy with Mist and Fog 32 0 32 0 100 100 NNE 3 6 29.76 1008 5 8.0467 0 0
1:15 pm 13:15 Cloudy 33 0.5 32 0 96 96 N 7 11 29.75 1007 7 11.26538 0 0
1:35 pm 13:35 Cloudy 33 0.6 32 0 96 96 NNE 7 11 29.75 1007 10 16.0934 0 0
1:55 pm 13:55 Cloudy 33 0.6 32 0 96 96 N 9 15 29.74 1007 7 11.26538 0 0
2:15 pm 14:15 Cloudy 33 0.8 32 0.1 95 95 NNE 7 11 29.73 1007 7 11.26538 0 0
2:35 pm 14:35 Cloudy 33 0.7 32 0.1 96 96 NNE 7 11 29.74 1007 7 11.26538 0 0
2:55 pm 14:55 Cloudy 33 0.7 32 0 95 95 N 8 13 29.75 1007 7 11.26538 0 0
3:15 pm 15:15 Cloudy 33 0.7 32 0 95 95 N 7 11 29.76 1008 7 11.26538 0 0
3:35 pm 15:35 Cloudy 33 0.7 32 0 95 95 NNE 7 11 29.77 1008 7 11.26538 0 0
3:55 pm 15:55 Cloudy 33 0.5 32 0 96 96 NNE 7 11 29.78 1008 10 16.0934 0 0
4:15 pm 16:15 Cloudy 33 0.3 32 -0.1 97 97 N 7 11 29.79 1009 10 16.0934 0 0
4:35 pm 16:35 Cloudy 33 0.3 32 -0.1 97 97 N 6 9 29.8 1009 10 16.0934 0 0
4:55 pm 16:55 Cloudy 32 0.2 32 -0.1 98 98 NNE 5 7 29.82 1010 10 16.0934 0 0
5:15 pm 17:15 Cloudy 32 0.1 32 -0.2 98 98 NNE 5 7 29.84 1010 7 11.26538 0 0
5:35 pm 17:35 Cloudy 32 0 31 -0.5 96 96 NNE 7 11 29.85 1011 10 16.0934 0 0
5:55 pm 17:55 Cloudy 32 0 31 -0.6 96 96 N 6 9 29.86 1011 10 16.0934 0 0
6:15 pm 18:15 Cloudy 31 -0.3 31 -0.7 97 97 N 7 11 29.87 1011 7 11.26538 0 0
6:35 pm 18:35 Cloudy 31 -0.3 31 -0.8 96 96 N 8 13 29.88 1012 7 11.26538 0 0
6:55 pm 18:55 Cloudy 31 -0.5 30 -1 96 96 N 7 11 29.89 1012 10 16.0934 0 0
7:15 pm 19:15 Cloudy 31 -0.5 30 -1.1 96 96 N 8 13 29.9 1013 7 11.26538 0 0
7:35 pm 19:35 Cloudy 31 -0.8 29 -1.5 95 95 N 8 13 29.9 1013 7 11.26538 0 0
7:55 pm 19:55 Cloudy 31 -0.8 29 -1.5 95 95 N 7 11 29.9 1013 7 11.26538 0 0
8:15 pm 20:15 Cloudy 30 -1 29 -1.6 96 96 NNW 6 9 29.92 1013 7 11.26538 0 0
8:35 pm 20:35 Cloudy 30 -1.2 29 -1.8 96 96 NNW 10 17 29.91 1013 10 16.0934 0 0
8:55 pm 20:55 Cloudy 29 -1.5 28 -2 96 96 N 10 17 29.92 1013 10 16.0934 0 0
9:15 pm 21:15 Cloudy 29 -1.8 28 -2.4 96 96 NNW 8 13 29.93 1014 10 16.0934 0 0
9:35 pm 21:35 Cloudy 29 -1.8 28 -2.5 95 95 NNW 10 17 29.95 1014 10 16.0934 0 0
9:55 pm 21:55 Cloudy 29 -1.8 28 -2.5 95 95 NW 13 20 29.96 1015 10 16.0934 0 0
10:15 pm 22:15 Cloudy 28 -2.2 27 -2.9 95 95 NNW 15 24 29.96 1015 10 16.0934 0 0
10:35 pm 22:35 Cloudy 28 -2.3 26 -3.1 94 94 NNW 13 20 29.98 1015 10 16.0934 0 0
10:55 pm 22:55 Cloudy 28 -2.3 26 -3.2 94 94 NNW 15 24 29.98 1015 10 16.0934 0 0
11:15 pm 23:15 Cloudy 28 -2 27 -3 93 93 NNW 14 22 29.98 1015 10 16.0934 0 0
11:35 pm 23:35 Cloudy 28 -2.2 26 -3.1 94 94 NNW 17 28 29.97 1015 10 16.0934 0 0
11:55 pm 23:55 Cloudy 28 -2 27 -3 93 93 NNW 16 26 29.97 1015 10 16.0934 0 0

Powered by AerisWeather